TimeEST,TemperatureF,Dew PointF,Humidity,Sea Level PressureIn,VisibilityMPH,Wind Direction,Wind SpeedMPH,Gust SpeedMPH,PrecipitationIn,Events,Conditions,WindDirDegrees,DateUTC
12:15 AM,26.6,17.6,69,30.62,10.0,North,4.6,-,N/A,,Clear,10,2013-11-13 05:15:00
12:35 AM,26.6,17.6,69,30.61,10.0,NNE,3.5,-,N/A,,Clear,20,2013-11-13 05:35:00
12:55 AM,26.6,17.6,69,30.61,10.0,North,3.5,-,N/A,,Clear,10,2013-11-13 05:55:00
1:15 AM,26.6,17.6,69,30.61,10.0,Calm,Calm,-,N/A,,Clear,0,2013-11-13 06:15:00
1:35 AM,24.8,17.6,74,30.61,10.0,Calm,Calm,-,N/A,,Clear,0,2013-11-13 06:35:00
1:55 AM,23.0,17.6,80,30.61,10.0,Calm,Calm,-,N/A,,Clear,0,2013-11-13 06:55:00
2:15 AM,23.0,17.6,80,30.61,10.0,Calm,Calm,-,N/A,,Clear,0,2013-11-13 07:15:00
2:35 AM,23.0,17.6,80,30.61,10.0,Calm,Calm,-,N/A,,Clear,0,2013-11-13 07:35:00
2:55 AM,23.0,17.6,80,30.61,10.0,Calm,Calm,-,N/A,,Clear,0,2013-11-13 07:55:00
3:15 AM,21.2,17.6,86,30.60,10.0,Calm,Calm,-,N/A,,Clear,0,2013-11-13 08:15:00
3:35 AM,21.2,17.6,86,30.60,10.0,Calm,Calm,-,N/A,,Clear,0,2013-11-13 08:35:00
3:55 AM,21.2,15.8,80,30.61,10.0,Calm,Calm,-,N/A,,Clear,0,2013-11-13 08:55:00
4:15 AM,21.2,17.6,86,30.61,10.0,Calm,Calm,-,N/A,,Clear,0,2013-11-13 09:15:00
4:35 AM,21.2,17.6,86,30.61,10.0,Calm,Calm,-,N/A,,Clear,0,2013-11-13 09:35:00
4:55 AM,21.2,19.4,93,30.62,10.0,Calm,Calm,-,N/A,,Clear,0,2013-11-13 09:55:00
5:15 AM,19.4,17.6,93,30.62,10.0,Calm,Calm,-,N/A,,Clear,0,2013-11-13 10:15:00
5:35 AM,19.4,17.6,93,30.63,10.0,Calm,Calm,-,N/A,,Clear,0,2013-11-13 10:35:00
5:55 AM,21.2,17.6,86,30.63,10.0,Calm,Calm,-,N/A,,Clear,0,2013-11-13 10:55:00
6:15 AM,19.4,17.6,93,30.63,10.0,Calm,Calm,-,N/A,,Clear,0,2013-11-13 11:15:00
6:35 AM,19.4,17.6,93,30.64,10.0,Calm,Calm,-,N/A,,Clear,0,2013-11-13 11:35:00
6:55 AM,19.4,17.6,93,30.65,10.0,Calm,Calm,-,N/A,,Clear,0,2013-11-13 11:55:00
7:15 AM,19.4,15.8,86,30.65,10.0,Calm,Calm,-,N/A,,Clear,0,2013-11-13 12:15:00
7:35 AM,21.2,17.6,86,30.66,10.0,Calm,Calm,-,N/A,,Clear,0,2013-11-13 12:35:00
7:55 AM,21.2,17.6,86,30.66,10.0,Calm,Calm,-,N/A,,Clear,0,2013-11-13 12:55:00
8:15 AM,23.0,19.4,86,30.67,10.0,Calm,Calm,-,N/A,,Clear,0,2013-11-13 13:15:00
8:35 AM,26.6,19.4,74,30.67,10.0,Calm,Calm,-,N/A,,Clear,0,2013-11-13 13:35:00
8:55 AM,26.6,21.2,80,30.67,10.0,Calm,Calm,-,N/A,,Clear,0,2013-11-13 13:55:00
9:15 AM,28.4,23.0,80,30.68,10.0,Calm,Calm,-,N/A,,Clear,0,2013-11-13 14:15:00
9:35 AM,30.2,23.0,75,30.68,10.0,NE,3.5,-,N/A,,Clear,50,2013-11-13 14:35:00
9:55 AM,32.0,23.0,69,30.68,10.0,Calm,Calm,-,N/A,,Clear,0,2013-11-13 14:55:00
10:15 AM,32.0,23.0,69,30.68,10.0,South,3.5,-,N/A,,Clear,170,2013-11-13 15:15:00
10:35 AM,32.0,23.0,69,30.68,10.0,Calm,Calm,-,N/A,,Clear,0,2013-11-13 15:35:00
10:55 AM,32.0,23.0,69,30.67,10.0,Calm,Calm,-,N/A,,Clear,0,2013-11-13 15:55:00
11:15 AM,33.8,21.2,60,30.67,10.0,SW,3.5,-,N/A,,Scattered Clouds,220,2013-11-13 16:15:00
11:35 AM,33.8,19.4,56,30.66,10.0,Calm,Calm,-,N/A,,Clear,0,2013-11-13 16:35:00
11:55 AM,35.6,19.4,52,30.65,10.0,East,3.5,-,N/A,,Clear,80,2013-11-13 16:55:00
12:15 PM,35.6,19.4,52,30.65,10.0,SW,3.5,-,N/A,,Scattered Clouds,230,2013-11-13 17:15:00
12:35 PM,35.6,19.4,52,30.63,10.0,Calm,Calm,-,N/A,,Scattered Clouds,0,2013-11-13 17:35:00
12:55 PM,35.6,19.4,52,30.62,10.0,Calm,Calm,-,N/A,,Scattered Clouds,0,2013-11-13 17:55:00
1:15 PM,35.6,19.4,52,30.61,10.0,Calm,Calm,-,N/A,,Scattered Clouds,0,2013-11-13 18:15:00
1:35 PM,37.4,19.4,48,30.61,10.0,Calm,Calm,-,N/A,,Clear,0,2013-11-13 18:35:00
1:55 PM,37.4,19.4,48,30.60,10.0,Calm,Calm,-,N/A,,Clear,0,2013-11-13 18:55:00
2:15 PM,37.4,19.4,48,30.59,10.0,Calm,Calm,-,N/A,,Clear,0,2013-11-13 19:15:00
2:35 PM,37.4,17.6,45,30.58,10.0,Calm,Calm,-,N/A,,Clear,0,2013-11-13 19:35:00
2:55 PM,39.2,17.6,42,30.57,10.0,Calm,Calm,-,N/A,,Clear,0,2013-11-13 19:55:00
3:15 PM,37.4,15.8,41,30.56,10.0,Calm,Calm,-,N/A,,Clear,0,2013-11-13 20:15:00
3:35 PM,39.2,15.8,39,30.55,10.0,Calm,Calm,-,N/A,,Clear,0,2013-11-13 20:35:00
3:55 PM,39.2,17.6,42,30.55,10.0,Calm,Calm,-,N/A,,Clear,0,2013-11-13 20:55:00
4:15 PM,41.0,15.8,36,30.55,10.0,Calm,Calm,-,N/A,,Clear,0,2013-11-13 21:15:00
4:35 PM,39.2,14.0,36,30.54,10.0,NW,3.5,-,N/A,,Clear,320,2013-11-13 21:35:00
4:55 PM,37.4,14.0,38,30.53,10.0,Calm,Calm,-,N/A,,Clear,0,2013-11-13 21:55:00
5:15 PM,37.4,14.0,38,30.53,10.0,Calm,Calm,-,N/A,,Clear,0,2013-11-13 22:15:00
5:35 PM,37.4,14.0,38,30.53,10.0,Calm,Calm,-,N/A,,Clear,0,2013-11-13 22:35:00
5:55 PM,35.6,15.8,44,30.52,10.0,Calm,Calm,-,N/A,,Clear,0,2013-11-13 22:55:00
6:15 PM,35.6,17.6,48,30.52,10.0,Calm,Calm,-,N/A,,Clear,0,2013-11-13 23:15:00
6:35 PM,33.8,17.6,52,30.52,10.0,Calm,Calm,-,N/A,,Clear,0,2013-11-13 23:35:00
6:55 PM,32.0,19.4,60,30.51,10.0,Calm,Calm,-,N/A,,Clear,0,2013-11-13 23:55:00
7:15 PM,32.0,19.4,60,30.51,10.0,Calm,Calm,-,N/A,,Clear,0,2013-11-14 00:15:00
7:35 PM,32.0,21.2,64,30.51,10.0,Calm,Calm,-,N/A,,Clear,0,2013-11-14 00:35:00
7:55 PM,30.2,21.2,69,30.50,10.0,Calm,Calm,-,N/A,,Clear,0,2013-11-14 00:55:00
8:15 PM,30.2,21.2,69,30.50,10.0,Calm,Calm,-,N/A,,Clear,0,2013-11-14 01:15:00
8:35 PM,30.2,21.2,69,30.51,10.0,Calm,Calm,-,N/A,,Clear,0,2013-11-14 01:35:00
8:55 PM,30.2,21.2,69,30.51,10.0,Calm,Calm,-,N/A,,Clear,0,2013-11-14 01:55:00
9:15 PM,28.4,21.2,74,30.50,10.0,Calm,Calm,-,N/A,,Clear,0,2013-11-14 02:15:00
9:35 PM,28.4,21.2,74,30.50,10.0,Calm,Calm,-,N/A,,Clear,0,2013-11-14 02:35:00
9:55 PM,28.4,21.2,74,30.49,10.0,SE,3.5,-,N/A,,Clear,130,2013-11-14 02:55:00
10:15 PM,28.4,21.2,74,30.48,10.0,Calm,Calm,-,N/A,,Clear,0,2013-11-14 03:15:00
10:35 PM,28.4,21.2,74,30.47,10.0,Calm,Calm,-,N/A,,Clear,0,2013-11-14 03:35:00
10:55 PM,28.4,21.2,74,30.47,10.0,Calm,Calm,-,N/A,,Clear,0,2013-11-14 03:55:00
11:15 PM,28.4,21.2,74,30.47,10.0,Calm,Calm,-,N/A,,Clear,0,2013-11-14 04:15:00
11:35 PM,26.6,21.2,80,30.47,10.0,Calm,Calm,-,N/A,,Clear,0,2013-11-14 04:35:00
11:55 PM,26.6,21.2,80,30.46,10.0,Calm,Calm,-,N/A,,Clear,0,2013-11-14 04:55:00